Weather History for Istanbul, Turkey

Change the Weather History Date:

Tuesday, March 4, 2014

  Actual Average Record
Temperature  
Mean Temperature 54 °F -  
Max Temperature 58 °F 52 °F 66 °F (1999)
Min Temperature 51 °F 40 °F 32 °F (2013)
Degree Days  
Heating Degree Days 10    
Growing Degree Days 4 (Base 50)    
Moisture  
Dew Point 45 °F    
Average Humidity 72    
Maximum Humidity 88    
Minimum Humidity 44    
Precipitation  
Precipitation 0.02 in - - ()
Sea Level Pressure  
Sea Level Pressure 29.60 in    
Wind  
Wind Speed 6 mph ()    
Max Wind Speed 16 mph    
Max Gust Speed -    
Visibility 6.3 miles    
Events Rain    
Averages and records for this station are not official NWS values.
T = Trace of Precipitation, MM = Missing Value Source: Averaged Metar Reports

Daily Weather History Graph

Daily Weather History Graph

Search for Another Location

Airport:

Trip Planner

Search our weather history database for the weather conditions in past years. The results will help you decide how hot, cold, wet, or windy it might be!

Date:

Astronomy

Mar. 04, 2014 Rise Set
Actual Time 6:34 AM EET 5:58 PM EET
Civil Twilight 6:07 AM EET 6:26 PM EET
Nautical Twilight 5:35 AM EET 6:58 PM EET
Astronomical Twilight 5:03 AM EET 7:30 PM EET
Moon 8:06 AM EET (3/4) 9:47 PM EET (3/4)
Length of Visible Light 12h 19m
Length of Day
11h 24m
Waxing Crescent, 12% of the Moon is Illuminated
Mar 4
Waxing Crescent
Mar 8
First Quarter
Mar 16
Full
Mar 24
Last Quarter
Mar 30
New

Hourly Weather History & Observations

Time (EET) Temp. Dew Point Humidity Pressure Visibility Wind Dir Wind Speed Gust Speed Precip Events Conditions
12:20 AM 57.2 °F 44.6 °F 63% 29.44 in 6.2 mi East 5.8 mph - N/A   Mostly Cloudy
12:50 AM 57.2 °F 46.4 °F 67% 29.47 in 6.2 mi East 5.8 mph - N/A   Mostly Cloudy
1:20 AM 59.0 °F 46.4 °F 63% 29.47 in 6.2 mi ESE 6.9 mph - N/A   Mostly Cloudy
1:50 AM 59.0 °F 44.6 °F 59% 29.47 in 6.2 mi SE 4.6 mph - N/A   Mostly Cloudy
2:00 AM 59 °F 44 °F 46% 29.47 in 6 mi SE 4.6 mph - -   Partly Cloudy
2:20 AM 55.4 °F 44.6 °F 67% 29.47 in 6.2 mi South 10.4 mph - N/A   Mostly Cloudy
2:50 AM 55.4 °F 44.6 °F 67% 29.47 in 6.2 mi WSW 4.6 mph - N/A   Mostly Cloudy
3:20 AM 55.4 °F 44.6 °F 67% 29.47 in 6.2 mi WSW 6.9 mph - N/A   Mostly Cloudy
3:50 AM 55.4 °F 44.6 °F 67% 29.47 in 6.2 mi WSW 3.5 mph - N/A   Mostly Cloudy
4:20 AM 53.6 °F 44.6 °F 72% 29.50 in 6.2 mi SW 4.6 mph - N/A Rain Light Rain Showers
4:50 AM 51.8 °F 46.4 °F 82% 29.50 in 6.2 mi Calm Calm - N/A Rain Light Rain Showers
5:00 AM 52 °F 46 °F 74% 29.52 in 6 mi Calm Calm - - Rain Light Rain Showers
5:20 AM 51.8 °F 44.6 °F 76% 29.50 in 6.2 mi SSW 4.6 mph - N/A   Mostly Cloudy
5:50 AM 51.8 °F 44.6 °F 76% 29.50 in 6.2 mi SSW 9.2 mph - N/A   Mostly Cloudy
6:20 AM 53.6 °F 42.8 °F 67% 29.50 in 6.2 mi SW 16.1 mph - N/A   Mostly Cloudy
6:50 AM 51.8 °F 42.8 °F 71% 29.53 in 6.2 mi SW 12.7 mph - N/A   Mostly Cloudy
7:20 AM 53.6 °F 41.0 °F 62% 29.53 in 6.2 mi SW 16.1 mph - N/A   Mostly Cloudy
7:50 AM 53.6 °F 42.8 °F 67% 29.56 in 6.2 mi SW 13.8 mph - N/A   Mostly Cloudy
8:00 AM 54 °F 42 °F 53% 29.56 in 6 mi SW 13.8 mph - -   Partly Cloudy
8:20 AM 53.6 °F 42.8 °F 67% 29.56 in - SW 10.4 mph - N/A   Clear
8:50 AM 53.6 °F 42.8 °F 67% 29.56 in - SW 12.7 mph - N/A   Clear
9:20 AM 55.4 °F 41.0 °F 58% 29.56 in - SW 11.5 mph - N/A   Clear
9:50 AM 55.4 °F 42.8 °F 63% 29.59 in - SW 8.1 mph - N/A   Clear
10:20 AM 57.2 °F 42.8 °F 59% 29.59 in - WSW 9.2 mph - N/A   Clear
10:50 AM 57.2 °F 42.8 °F 59% 29.59 in - SW 6.9 mph - N/A   Clear
11:00 AM 58 °F 42 °F 44% 29.60 in 12 mi SW 6.9 mph - -   Partly Cloudy
11:20 AM 57.2 °F 41.0 °F 55% 29.59 in 6.2 mi WSW 5.8 mph - N/A   Mostly Cloudy
11:50 AM 57.2 °F 42.8 °F 59% 29.59 in 6.2 mi WSW 5.8 mph - N/A   Mostly Cloudy
12:20 PM 57.2 °F 42.8 °F 59% 29.62 in 6.2 mi WSW 4.6 mph - N/A   Mostly Cloudy
12:50 PM 55.4 °F 44.6 °F 67% 29.62 in 6.2 mi WSW 9.2 mph - N/A   Mostly Cloudy
1:13 PM 53.6 °F 46.4 °F 77% 29.62 in 6.2 mi SW 15.0 mph - N/A Rain Light Rain Showers
1:20 PM 51.8 °F 46.4 °F 82% 29.62 in 6.2 mi SW 16.1 mph - N/A Rain Light Rain Showers
1:50 PM 51.8 °F 48.2 °F 88% 29.65 in 6.2 mi South 11.5 mph - N/A Rain Light Rain Showers
2:00 PM 52 °F 47 °F 77% 29.65 in 6 mi South 11.5 mph - - Rain Light Rain Showers
2:20 PM 51.8 °F 48.2 °F 88% 29.65 in 6.2 mi SSW 10.4 mph - N/A   Mostly Cloudy
2:50 PM 51.8 °F 48.2 °F 88% 29.65 in 6.2 mi SSW 6.9 mph - N/A   Mostly Cloudy
3:20 PM 51.8 °F 48.2 °F 88% 29.65 in 6.2 mi SSW 5.8 mph - N/A   Mostly Cloudy
3:50 PM 51.8 °F 46.4 °F 82% 29.65 in 6.2 mi Variable 2.3 mph - N/A   Mostly Cloudy
4:19 PM 51.8 °F 48.2 °F 88% 29.65 in 6.2 mi SSW 3.5 mph - N/A Rain Light Rain Showers
4:20 PM 51.8 °F 48.2 °F 88% 29.65 in 6.2 mi SSW 3.5 mph - N/A Rain Light Rain Showers
4:50 PM 51.8 °F 46.4 °F 82% 29.65 in 6.2 mi Calm Calm - N/A Rain Light Rain Showers
5:00 PM 52 °F 47 °F 77% 29.67 in 6 mi Calm Calm - - Rain Light Rain Showers
5:20 PM 51.8 °F 46.4 °F 82% 29.65 in 6.2 mi Variable 1.2 mph - N/A Rain Light Rain Showers
5:50 PM 51.8 °F 46.4 °F 82% 29.65 in 6.2 mi Variable 1.2 mph - N/A   Mostly Cloudy
6:20 PM 51.8 °F 46.4 °F 82% 29.68 in 6.2 mi Variable 1.2 mph - N/A   Scattered Clouds
6:50 PM 51.8 °F 46.4 °F 82% 29.68 in 6.2 mi East 4.6 mph - N/A   Scattered Clouds
7:20 PM 53.6 °F 46.4 °F 77% 29.68 in - ESE 5.8 mph - N/A   Clear
7:50 PM 53.6 °F 46.4 °F 77% 29.71 in - ESE 6.9 mph - N/A   Clear
8:00 PM 54 °F 45 °F 64% 29.72 in 6 mi ESE 6.9 mph - -   Partly Cloudy
8:20 PM 53.6 °F 46.4 °F 77% 29.71 in - SE 6.9 mph - N/A   Clear
8:50 PM 53.6 °F 46.4 °F 77% 29.71 in - SE 6.9 mph - N/A   Clear
9:20 PM 55.4 °F 46.4 °F 72% 29.71 in - ESE 5.8 mph - N/A   Clear
9:50 PM 53.6 °F 44.6 °F 72% 29.74 in - Calm Calm - N/A   Clear
10:20 PM 51.8 °F 44.6 °F 76% 29.74 in - Variable 1.2 mph - N/A   Clear
10:50 PM 51.8 °F 44.6 °F 76% 29.74 in - Calm Calm - N/A   Clear
11:00 PM 51 °F 45 °F 74% 29.75 in 6 mi Calm Calm - -   Partly Cloudy
11:20 PM 51.8 °F 46.4 °F 82% 29.74 in - Variable 2.3 mph - N/A   Clear
11:50 PM 51.8 °F 46.4 °F 82% 29.74 in - East 4.6 mph - N/A   Clear